Terug naar catalogus

BREEZE-M DEB

LostHEO
NORAD 35538·DEBRIS·🇷🇺 Russia

Gelanceerd Feb 28, 2006 vanaf Baikonur Cosmodrome

Loading…

Volgende Passages (komende 24 uur)

TLE

VerouderdSource: Space-Track

Epoch: May 9, 2025, 09:37 UTC

1 35538U 06006CF  25129.40108414  .00001591  00000-0  88438-2 0  9996
2 35538  51.7408 137.9469 5062338 204.9919 340.5415  5.09276881222904

Volg BREEZE-M DEB in realtime met AllMySat

Download on the App Store